Tracking 30289 objects as of 29-Apr-2025
HD Live streaming from Space Station
objects crossing your sky now

STARLINK-33674

Track STARLINK-33674 now!
10-day predictions
STARLINK-33674 is classified as:


NORAD ID: 63329
Int'l Code: 2025-057Y
Perigee: 489.1 km
Apogee: 491.1 km
Inclination: 43.0 °
Period: 94.3 minutes
Semi major axis: 6861 km
RCS: Unknown
Launch date: March 18, 2025
Source: United States (US)
Launch site: AIR FORCE EASTERN TEST RANGE (AFETR)
Your satellite tracking list
Your tracking list is empty




NASA's NSSDC Master Catalog

Two Line Element Set (TLE):
1 63329U 25057Y   25118.91668981 -.00049564  00000-0 -18022-2 0  9992
2 63329  43.0009   8.5879 0001492 274.0077 180.2068 15.27605965  6031
Source of the keplerian elements: AFSPC